When you browse on this site, cookies collect data to enhance your experience and personalize the content and advertising you see.
Visit our Privacy Policy to learn more. By continuing to use the site, you agree to this use of cookies and data.
  • en France
  • Liste des pays
  • À 7 jours
  • Température de l'eau
  • Carte satellitaire
  • Carte météo
  • Widgets météo
  • user-avatar
    Se connecter

    Météo par heure à Mayrhofen

    Ce jour, 16 Février, Samedi

    Heure Température Précipitation Vent Pression Humidité
    00:00 -5°C° 0 mm 2 m/s 622 mmHg 41%
    01:00 -5°C° 0 mm 2 m/s 622 mmHg 42%
    02:00 -5°C° 0 mm 2 m/s 622 mmHg 42%
    03:00 -5°C° 0 mm 2 m/s 622 mmHg 43%
    04:00 -5°C° 0 mm 2 m/s 622 mmHg 43%
    05:00 -5°C° 0 mm 2 m/s 622 mmHg 42%
    06:00 -5°C° 0 mm 2 m/s 622 mmHg 41%
    07:00 -5°C° 0 mm 2 m/s 622 mmHg 41%
    08:00 -3°C° 0 mm 2 m/s 622 mmHg 48%
    09:00 +1°C° 0 mm 1 m/s 623 mmHg 56%
    10:00 +3°C° 0 mm 1 m/s 624 mmHg 63%
    11:00 +4°C° 0 mm 1 m/s 624 mmHg 74%
    12:00 +4°C° 0 mm 1 m/s 624 mmHg 85%
    13:00 +5°C° 0 mm 1 m/s 624 mmHg 96%
    14:00 +5°C° 0 mm 1 m/s 623 mmHg 88%
    15:00 +5°C° 0 mm 1 m/s 623 mmHg 80%
    16:00 +4°C° 0 mm 1 m/s 623 mmHg 72%
    17:00 +2°C° 0 mm 1 m/s 622 mmHg 65%
    18:00 +1°C° 0 mm 1 m/s 622 mmHg 57%
    19:00 -1°C° 0 mm 1 m/s 622 mmHg 49%
    20:00 -2°C° 0 mm 1 m/s 621 mmHg 47%
    21:00 -4°C° 0 mm 2 m/s 621 mmHg 44%
    22:00 -4°C° 0 mm 2 m/s 621 mmHg 42%
    23:00 -4°C° 0 mm 2 m/s 621 mmHg 41%

    Demain, 17 Février, Dimanche

    Heure Température Précipitation Vent Pression Humidité
    00:00 -4°C° 0 mm 2 m/s 621 mmHg 40%
    01:00 -4°C° 0 mm 2 m/s 621 mmHg 39%
    02:00 -4°C° 0 mm 2 m/s 621 mmHg 38%
    03:00 -5°C° 0 mm 2 m/s 621 mmHg 38%
    04:00 -5°C° 0 mm 2 m/s 620 mmHg 37%
    05:00 -5°C° 0 mm 2 m/s 620 mmHg 37%
    06:00 -5°C° 0 mm 2 m/s 620 mmHg 37%
    07:00 -5°C° 0 mm 2 m/s 620 mmHg 37%
    08:00 -3°C° 0 mm 2 m/s 621 mmHg 45%
    09:00 -1°C° 0 mm 2 m/s 621 mmHg 53%
    10:00 +3°C° 0 mm 1 m/s 622 mmHg 60%
    11:00 +4°C° 0 mm 1 m/s 622 mmHg 71%
    12:00 +5°C° 0 mm 1 m/s 622 mmHg 82%
    13:00 +5°C° 0 mm 1 m/s 622 mmHg 92%
    14:00 +5°C° 0 mm 1 m/s 621 mmHg 86%
    15:00 +5°C° 0 mm 1 m/s 621 mmHg 79%
    16:00 +4°C° 0 mm 1 m/s 621 mmHg 73%
    17:00 +3°C° 0 mm 1 m/s 620 mmHg 65%
    18:00 +1°C° 0 mm 1 m/s 620 mmHg 58%
    19:00 -3°C° 0 mm 2 m/s 619 mmHg 51%
    20:00 -3°C° 0 mm 2 m/s 619 mmHg 49%
    21:00 -3°C° 0 mm 2 m/s 619 mmHg 47%
    22:00 -4°C° 0 mm 2 m/s 619 mmHg 44%
    23:00 -4°C° 0 mm 2 m/s 619 mmHg 43%

    Après-demain, 18 Février, Lundi

    Heure Température Précipitation Vent Pression Humidité
    00:00 -4°C° 0 mm 2 m/s 619 mmHg 42%
    01:00 -5°C° 0 mm 2 m/s 618 mmHg 41%
    02:00 -5°C° 0 mm 2 m/s 618 mmHg 40%
    03:00 -5°C° 0 mm 2 m/s 618 mmHg 39%
    04:00 -5°C° 0 mm 2 m/s 617 mmHg 37%
    05:00 -5°C° 0 mm 2 m/s 617 mmHg 37%
    06:00 -6°C° 0 mm 2 m/s 617 mmHg 36%
    07:00 -6°C° 0 mm 2 m/s 617 mmHg 35%
    08:00 -4°C° 0 mm 2 m/s 618 mmHg 42%
    09:00 -2°C° 0 mm 2 m/s 618 mmHg 49%
    10:00 +1°C° 0 mm 2 m/s 619 mmHg 56%
    11:00 +2°C° 0 mm 2 m/s 619 mmHg 64%
    12:00 +3°C° 0 mm 2 m/s 619 mmHg 71%
    13:00 +4°C° 0 mm 2 m/s 619 mmHg 78%
    14:00 +3°C° 0 mm 2 m/s 619 mmHg 77%
    15:00 +3°C° 0 mm 2 m/s 618 mmHg 75%
    16:00 +3°C° 0 mm 2 m/s 618 mmHg 73%
    17:00 +1°C° 0 mm 2 m/s 618 mmHg 67%
    18:00 -1°C° 0 mm 2 m/s 617 mmHg 61%
    19:00 -3°C° 0 mm 2 m/s 617 mmHg 55%
    20:00 -3°C° 0 mm 2 m/s 617 mmHg 53%
    21:00 -4°C° 0 mm 2 m/s 617 mmHg 51%
    22:00 -4°C° 0 mm 2 m/s 617 mmHg 50%
    23:00 -4°C° 0 mm 2 m/s 617 mmHg 50%

    19 Février, Mardi

    Heure Température Précipitation Vent Pression Humidité
    00:00 -4°C° 0 mm 2 m/s 617 mmHg 51%
    01:00 -4°C° 0 mm 2 m/s 617 mmHg 52%
    02:00 -5°C° 0 mm 2 m/s 617 mmHg 52%
    03:00 -5°C° 0 mm 2 m/s 616 mmHg 52%
    04:00 -5°C° 0 mm 2 m/s 616 mmHg 53%
    05:00 -5°C° 0 mm 2 m/s 616 mmHg 52%
    06:00 -3°C° 0 mm 1 m/s 616 mmHg 51%
    07:00 -4°C° 0 mm 1 m/s 616 mmHg 51%
    08:00 -2°C° 0 mm 1 m/s 617 mmHg 54%
    09:00 0°C° 0 mm 1 m/s 618 mmHg 57%
    10:00 0°C° 0 mm 0 m/s 618 mmHg 60%
    11:00 +1°C° 0 mm 0 m/s 618 mmHg 61%
    12:00 +2°C° 0 mm 0 m/s 618 mmHg 62%
    13:00 +2°C° 0 mm 0 m/s 618 mmHg 63%
    14:00 +2°C° 0 mm 0 m/s 618 mmHg 66%
    15:00 +2°C° 0 mm 0 m/s 618 mmHg 69%
    16:00 +2°C° 0 mm 0 m/s 618 mmHg 72%
    17:00 0°C° 0 mm 0 m/s 618 mmHg 75%
    18:00 -1°C° 0 mm 1 m/s 617 mmHg 78%
    19:00 -2°C° 0 mm 1 m/s 617 mmHg 80%
    20:00 -3°C° 0 mm 1 m/s 618 mmHg 81%
    21:00 -3°C° 0 mm 1 m/s 618 mmHg 83%
    22:00 -3°C° 0 mm 1 m/s 618 mmHg 84%
    23:00 -3°C° 0 mm 1 m/s 618 mmHg 84%

    20 Février, Mercredi

    Heure Température Précipitation Vent Pression Humidité
    00:00 -4°C° 0 mm 1 m/s 618 mmHg 84%
    01:00 -4°C° 0 mm 1 m/s 618 mmHg 84%
    02:00 -4°C° 0 mm 1 m/s 618 mmHg 82%
    03:00 -4°C° 0 mm 1 m/s 618 mmHg 80%
    04:00 -4°C° 0 mm 1 m/s 618 mmHg 79%
    05:00 -4°C° 0 mm 1 m/s 618 mmHg 77%
    06:00 -4°C° 0 mm 1 m/s 618 mmHg 74%
    07:00 -4°C° 0 mm 1 m/s 618 mmHg 72%
    08:00 -3°C° 0 mm 1 m/s 619 mmHg 70%
    09:00 -1°C° 0 mm 1 m/s 619 mmHg 68%
    10:00 +1°C° 0 mm 1 m/s 620 mmHg 66%
    11:00 +1°C° 0 mm 1 m/s 620 mmHg 65%
    12:00 +2°C° 0 mm 1 m/s 620 mmHg 64%
    13:00 +3°C° 0 mm 1 m/s 620 mmHg 63%
    14:00 +3°C° 0 mm 1 m/s 620 mmHg 65%
    15:00 +2°C° 0 mm 0 m/s 620 mmHg 67%
    16:00 +2°C° 0 mm 0 m/s 620 mmHg 69%
    17:00 0°C° 0 mm 0 m/s 620 mmHg 70%
    18:00 -1°C° 0 mm 0 m/s 619 mmHg 72%
    19:00 -2°C° 0 mm 1 m/s 619 mmHg 73%
    20:00 -2°C° 0 mm 1 m/s 619 mmHg 73%
    21:00 -2°C° 0 mm 1 m/s 620 mmHg 73%
    22:00 -2°C° 0 mm 1 m/s 620 mmHg 73%
    23:00 -2°C° 0 mm 1 m/s 620 mmHg 72%

    21 Février, Jeudi

    Heure Température Précipitation Vent Pression Humidité
    00:00 -2°C° 0 mm 1 m/s 620 mmHg 71%
    01:00 -2°C° 0 mm 1 m/s 620 mmHg 69%
    02:00 -2°C° 0 mm 1 m/s 620 mmHg 68%
    03:00 -2°C° 0 mm 1 m/s 620 mmHg 66%
    04:00 -2°C° 0 mm 1 m/s 620 mmHg 65%
    05:00 -2°C° 0 mm 1 m/s 620 mmHg 64%
    06:00 -2°C° 0 mm 1 m/s 620 mmHg 62%
    07:00 -2°C° 0 mm 1 m/s 620 mmHg 61%
    08:00 -1°C° 0 mm 1 m/s 621 mmHg 62%
    09:00 +1°C° 0 mm 1 m/s 621 mmHg 62%
    10:00 +2°C° 0 mm 1 m/s 622 mmHg 63%
    11:00 +3°C° 0 mm 1 m/s 622 mmHg 63%
    12:00 +3°C° 0 mm 1 m/s 622 mmHg 64%
    13:00 +4°C° 0 mm 1 m/s 622 mmHg 64%
    14:00 +4°C° 0 mm 1 m/s 622 mmHg 67%
    15:00 +4°C° 0 mm 1 m/s 621 mmHg 70%
    16:00 +3°C° 0 mm 1 m/s 621 mmHg 72%
    17:00 +3°C° 0 mm 1 m/s 621 mmHg 73%
    18:00 +2°C° 0 mm 1 m/s 621 mmHg 75%
    19:00 +1°C° 0 mm 1 m/s 621 mmHg 76%
    20:00 0°C° 0 mm 1 m/s 621 mmHg 75%
    21:00 0°C° 0 mm 1 m/s 621 mmHg 75%
    22:00 0°C° 0 mm 1 m/s 621 mmHg 74%
    23:00 -1°C° 0 mm 1 m/s 620 mmHg 74%
    Voir plus